Year,Month,Day,Hour,Minute,Value (Times are PST for temperature in C)
2013,02,15,12,16,8.20
2013,02,15,12,17,8.20
2013,02,15,12,18,8.30
2013,02,15,12,19,8.30
2013,02,15,12,20,8.30
2013,02,15,12,21,8.40
2013,02,15,12,22,8.40
2013,02,15,12,23,8.50
2013,02,15,12,24,8.50
2013,02,15,12,25,8.50
2013,02,15,12,26,8.50
2013,02,15,12,27,8.60
2013,02,15,12,28,8.60
2013,02,15,12,29,8.60
2013,02,15,12,30,8.60
2013,02,15,12,31,8.60
2013,02,15,12,32,8.60
2013,02,15,12,33,8.60
2013,02,15,12,34,8.70
2013,02,15,12,35,8.70
2013,02,15,12,36,8.80
2013,02,15,12,37,8.80
2013,02,15,12,38,8.80
2013,02,15,12,39,8.90
2013,02,15,12,40,8.90
2013,02,15,12,41,8.90
2013,02,15,12,42,8.90
2013,02,15,12,43,8.90
2013,02,15,12,44,8.90
2013,02,15,12,45,8.90
2013,02,15,12,46,8.90
2013,02,15,12,47,8.80
2013,02,15,12,48,8.80
2013,02,15,12,49,8.80
2013,02,15,12,50,8.80
2013,02,15,12,51,8.80
2013,02,15,12,52,8.80
2013,02,15,12,53,8.80
2013,02,15,12,54,8.80
2013,02,15,12,55,8.80
2013,02,15,12,56,8.80
2013,02,15,12,57,8.80
2013,02,15,12,58,8.80
2013,02,15,12,59,8.80
2013,02,15,13,00,8.80
2013,02,15,13,01,8.80
2013,02,15,13,02,8.80
2013,02,15,13,03,8.80
2013,02,15,13,04,8.90
2013,02,15,13,05,8.90
2013,02,15,13,06,8.80
2013,02,15,13,07,8.80
2013,02,15,13,08,8.80
2013,02,15,13,09,8.90
2013,02,15,13,10,8.90
2013,02,15,13,11,8.90
2013,02,15,13,12,8.90
2013,02,15,13,13,8.90
2013,02,15,13,14,9.00
2013,02,15,13,15,9.10
2013,02,15,13,16,9.10
2013,02,15,13,17,9.10
2013,02,15,13,18,9.20
2013,02,15,13,19,9.10
2013,02,15,13,20,9.10
2013,02,15,13,21,9.10
2013,02,15,13,22,9.10
2013,02,15,13,23,9.20
2013,02,15,13,24,9.20
2013,02,15,13,25,9.20
2013,02,15,13,26,9.20
2013,02,15,13,27,9.20
2013,02,15,13,28,9.20
2013,02,15,13,29,9.20
2013,02,15,13,30,9.20
2013,02,15,13,31,9.20
2013,02,15,13,32,9.20
2013,02,15,13,33,9.20
2013,02,15,13,34,9.20
2013,02,15,13,35,9.20
2013,02,15,13,36,9.20
2013,02,15,13,37,9.20
2013,02,15,13,38,9.20
2013,02,15,13,39,9.20
2013,02,15,13,40,9.20
2013,02,15,13,41,9.20
2013,02,15,13,42,9.20
2013,02,15,13,43,9.30
2013,02,15,13,44,9.30
2013,02,15,13,45,9.20
2013,02,15,13,46,9.20
2013,02,15,13,47,9.20
2013,02,15,13,48,9.20
2013,02,15,13,49,9.10
2013,02,15,13,50,9.10
2013,02,15,13,51,9.10
2013,02,15,13,52,9.10
2013,02,15,13,53,9.10
2013,02,15,13,54,9.10
2013,02,15,13,55,9.10
2013,02,15,13,56,9.10
2013,02,15,13,57,9.10
2013,02,15,13,58,9.10
2013,02,15,13,59,9.20
2013,02,15,14,00,9.20
2013,02,15,14,01,9.20
2013,02,15,14,02,9.30
2013,02,15,14,03,9.30
2013,02,15,14,04,9.30
2013,02,15,14,05,9.30
2013,02,15,14,06,9.30
2013,02,15,14,07,9.30
2013,02,15,14,08,9.30
2013,02,15,14,09,9.30
2013,02,15,14,10,9.30
2013,02,15,14,11,9.20
2013,02,15,14,12,9.20
2013,02,15,14,13,9.20
2013,02,15,14,14,9.20
2013,02,15,14,15,9.20
2013,02,15,14,16,9.20
2013,02,15,14,17,9.20
2013,02,15,14,18,9.20
2013,02,15,14,19,9.20
2013,02,15,14,20,9.20
2013,02,15,14,21,9.20
2013,02,15,14,22,9.20
2013,02,15,14,23,9.20
2013,02,15,14,24,9.20
2013,02,15,14,25,9.20
2013,02,15,14,26,9.20
2013,02,15,14,27,9.20
2013,02,15,14,28,9.20
2013,02,15,14,29,9.20
2013,02,15,14,30,9.30
2013,02,15,14,31,9.30
2013,02,15,14,32,9.30
2013,02,15,14,33,9.30
2013,02,15,14,34,9.20
2013,02,15,14,35,9.20
2013,02,15,14,36,9.20
2013,02,15,14,37,9.20
2013,02,15,14,38,9.20
2013,02,15,14,39,9.20
2013,02,15,14,40,9.20
2013,02,15,14,41,9.20
2013,02,15,14,42,9.20
2013,02,15,14,43,9.10
2013,02,15,14,44,9.10
2013,02,15,14,45,9.20
2013,02,15,14,46,9.10
2013,02,15,14,47,9.10
2013,02,15,14,48,9.00
2013,02,15,14,49,9.00
2013,02,15,14,50,9.00
2013,02,15,14,51,9.00
2013,02,15,14,52,9.00
2013,02,15,14,53,9.10
2013,02,15,14,54,9.10
2013,02,15,14,55,9.10
2013,02,15,14,56,9.10
2013,02,15,14,57,9.10
2013,02,15,14,58,9.10
2013,02,15,14,59,9.10
2013,02,15,15,00,9.10
2013,02,15,15,01,9.10
2013,02,15,15,02,9.10
2013,02,15,15,03,9.10
2013,02,15,15,04,9.00
2013,02,15,15,05,9.00
2013,02,15,15,06,9.00
2013,02,15,15,07,9.00
2013,02,15,15,08,9.00
2013,02,15,15,09,9.10
2013,02,15,15,10,9.10
2013,02,15,15,11,9.10
2013,02,15,15,12,9.20
2013,02,15,15,13,9.20
2013,02,15,15,14,9.20
2013,02,15,15,15,9.20
2013,02,15,15,16,9.10
2013,02,15,15,17,9.10
2013,02,15,15,18,9.20
2013,02,15,15,19,9.20
2013,02,15,15,20,9.20
2013,02,15,15,21,9.20
2013,02,15,15,22,9.10
2013,02,15,15,23,9.10
2013,02,15,15,24,9.20
2013,02,15,15,25,9.20
2013,02,15,15,26,9.20
2013,02,15,15,27,9.20
2013,02,15,15,28,9.30
2013,02,15,15,29,9.30
2013,02,15,15,30,9.30
2013,02,15,15,31,9.20
2013,02,15,15,32,9.20
2013,02,15,15,33,9.30
2013,02,15,15,34,9.30
2013,02,15,15,35,9.30
2013,02,15,15,36,9.30
2013,02,15,15,37,9.20
2013,02,15,15,38,9.20
2013,02,15,15,39,9.20
2013,02,15,15,40,9.30
2013,02,15,15,41,9.30
2013,02,15,15,42,9.30
2013,02,15,15,43,9.30
2013,02,15,15,44,9.20
2013,02,15,15,45,9.20
2013,02,15,15,46,9.20
2013,02,15,15,47,9.20
2013,02,15,15,48,9.20
2013,02,15,15,49,9.20
2013,02,15,15,50,9.20
2013,02,15,15,51,9.20
2013,02,15,15,52,9.20
2013,02,15,15,53,9.20
2013,02,15,15,54,9.20
2013,02,15,15,55,9.20
2013,02,15,15,56,9.20
2013,02,15,15,57,9.20
2013,02,15,15,58,9.20
2013,02,15,15,59,9.10
2013,02,15,16,00,9.10
2013,02,15,16,01,9.10
2013,02,15,16,02,9.10
2013,02,15,16,03,9.00
2013,02,15,16,04,9.00
2013,02,15,16,05,8.90
2013,02,15,16,06,8.90
2013,02,15,16,07,8.90
2013,02,15,16,08,8.90
2013,02,15,16,09,8.90
2013,02,15,16,10,8.80
2013,02,15,16,11,8.80
2013,02,15,16,12,8.80
2013,02,15,16,13,8.80
2013,02,15,16,14,8.80
2013,02,15,16,15,8.90
2013,02,15,16,16,8.80
2013,02,15,16,17,8.80
2013,02,15,16,18,8.80
2013,02,15,16,19,8.80
2013,02,15,16,20,8.80
2013,02,15,16,21,8.80
2013,02,15,16,22,8.80
2013,02,15,16,23,8.80
2013,02,15,16,24,8.80
2013,02,15,16,25,8.80
2013,02,15,16,26,8.80
2013,02,15,16,27,8.80
2013,02,15,16,28,8.80
2013,02,15,16,29,8.80
2013,02,15,16,30,8.80
2013,02,15,16,31,8.80
2013,02,15,16,32,8.90
2013,02,15,16,33,8.90
2013,02,15,16,34,8.90
2013,02,15,16,35,8.90
2013,02,15,16,36,8.90
2013,02,15,16,37,8.90
2013,02,15,16,38,8.90
2013,02,15,16,39,8.90
2013,02,15,16,40,8.80
2013,02,15,16,41,8.80
2013,02,15,16,42,8.80
2013,02,15,16,43,8.80
2013,02,15,16,44,8.70
2013,02,15,16,45,8.70
2013,02,15,16,46,8.70
2013,02,15,16,47,8.60
2013,02,15,16,48,8.60
2013,02,15,16,49,8.50
2013,02,15,16,50,8.50
2013,02,15,16,51,8.50
2013,02,15,16,52,8.40
2013,02,15,16,53,8.40
2013,02,15,16,54,8.40
2013,02,15,16,55,8.40
2013,02,15,16,56,8.40
2013,02,15,16,57,8.30
2013,02,15,16,58,8.30
2013,02,15,16,59,8.30
2013,02,15,17,00,8.30
2013,02,15,17,01,8.30
2013,02,15,17,02,8.30
2013,02,15,17,03,8.30
2013,02,15,17,04,8.30
2013,02,15,17,05,8.30
2013,02,15,17,06,8.30
2013,02,15,17,07,8.30
2013,02,15,17,08,8.30
2013,02,15,17,09,8.30
2013,02,15,17,10,8.30
2013,02,15,17,11,8.20
2013,02,15,17,12,8.20
2013,02,15,17,13,8.20
2013,02,15,17,14,8.20
2013,02,15,17,15,8.10
2013,02,15,17,16,8.10
2013,02,15,17,17,8.10
2013,02,15,17,18,8.10
2013,02,15,17,19,8.10
2013,02,15,17,20,8.10
2013,02,15,17,21,8.10
2013,02,15,17,22,8.00
2013,02,15,17,23,8.00
2013,02,15,17,24,8.00
2013,02,15,17,25,8.00
2013,02,15,17,26,7.90
2013,02,15,17,27,7.90
2013,02,15,17,28,7.90
2013,02,15,17,29,7.90
2013,02,15,17,30,7.90
2013,02,15,17,31,7.90
2013,02,15,17,32,7.80
2013,02,15,17,33,7.80
2013,02,15,17,34,7.80
2013,02,15,17,35,7.80
2013,02,15,17,36,7.80
2013,02,15,17,37,7.80
2013,02,15,17,38,7.80
2013,02,15,17,39,7.70
2013,02,15,17,40,7.70
2013,02,15,17,41,7.70
2013,02,15,17,42,7.70
2013,02,15,17,43,7.70
2013,02,15,17,44,7.70
2013,02,15,17,45,7.70
2013,02,15,17,46,7.70
2013,02,15,17,47,7.70
2013,02,15,17,48,7.60
2013,02,15,17,49,7.60
2013,02,15,17,50,7.60
2013,02,15,17,51,7.60
2013,02,15,17,52,7.60
2013,02,15,17,53,7.60
2013,02,15,17,54,7.60
2013,02,15,17,55,7.50
2013,02,15,17,56,7.50
2013,02,15,17,57,7.50
2013,02,15,17,58,7.40
2013,02,15,17,59,7.40
2013,02,15,18,00,7.40
2013,02,15,18,01,7.40
2013,02,15,18,02,7.40
2013,02,15,18,03,7.40
2013,02,15,18,04,7.40
2013,02,15,18,05,7.40
2013,02,15,18,06,7.30
2013,02,15,18,07,7.30
2013,02,15,18,08,7.30
2013,02,15,18,09,7.30
2013,02,15,18,10,7.30
2013,02,15,18,11,7.30
2013,02,15,18,12,7.30
2013,02,15,18,13,7.30
2013,02,15,18,14,7.30
2013,02,15,18,15,7.20
2013,02,15,18,16,7.20
2013,02,15,18,17,7.20
2013,02,15,18,18,7.20
2013,02,15,18,19,7.20
2013,02,15,18,20,7.20
2013,02,15,18,21,7.20
2013,02,15,18,22,7.20
2013,02,15,18,23,7.20
2013,02,15,18,24,7.20
2013,02,15,18,25,7.20
2013,02,15,18,26,7.20
2013,02,15,18,27,7.20
2013,02,15,18,28,7.20
2013,02,15,18,29,7.20
2013,02,15,18,30,7.20
2013,02,15,18,31,7.20
2013,02,15,18,32,7.20
2013,02,15,18,33,7.20
2013,02,15,18,34,7.20
2013,02,15,18,35,7.20
2013,02,15,18,36,7.10
2013,02,15,18,37,7.10
2013,02,15,18,38,7.10
2013,02,15,18,39,7.10
2013,02,15,18,40,7.10
2013,02,15,18,41,7.10
2013,02,15,18,42,7.10
2013,02,15,18,43,7.10
2013,02,15,18,44,7.10
2013,02,15,18,45,7.10
2013,02,15,18,46,7.10
2013,02,15,18,47,7.10
2013,02,15,18,48,7.10
2013,02,15,18,49,7.00
2013,02,15,18,50,7.00
2013,02,15,18,51,7.00
2013,02,15,18,52,7.00
2013,02,15,18,53,7.00
2013,02,15,18,54,7.00
2013,02,15,18,55,7.00
2013,02,15,18,56,7.00
2013,02,15,18,57,7.00
2013,02,15,18,58,7.00
2013,02,15,18,59,7.00
2013,02,15,19,00,7.00
2013,02,15,19,01,7.00
2013,02,15,19,02,7.00
2013,02,15,19,03,7.00
2013,02,15,19,04,7.00
2013,02,15,19,05,7.00
2013,02,15,19,06,7.00
2013,02,15,19,07,7.00
2013,02,15,19,08,7.00
2013,02,15,19,09,7.00
2013,02,15,19,10,7.00
2013,02,15,19,11,7.00
2013,02,15,19,12,7.00
2013,02,15,19,13,7.00
2013,02,15,19,14,7.00
2013,02,15,19,15,7.00
2013,02,15,19,16,7.00
2013,02,15,19,17,7.00
2013,02,15,19,18,7.00
2013,02,15,19,19,7.00
2013,02,15,19,20,7.00
2013,02,15,19,21,7.00
2013,02,15,19,22,7.00
2013,02,15,19,23,6.90
2013,02,15,19,24,6.90
2013,02,15,19,25,6.90
2013,02,15,19,26,6.90
2013,02,15,19,27,6.90
2013,02,15,19,28,6.90
2013,02,15,19,29,6.90
2013,02,15,19,30,6.90
2013,02,15,19,31,6.90
2013,02,15,19,32,6.90
2013,02,15,19,33,6.90
2013,02,15,19,34,6.90
2013,02,15,19,35,6.90
2013,02,15,19,36,6.90
2013,02,15,19,37,6.90
2013,02,15,19,38,6.90
2013,02,15,19,39,6.90
2013,02,15,19,40,6.90
2013,02,15,19,41,6.90
2013,02,15,19,42,6.90
2013,02,15,19,43,6.90
2013,02,15,19,44,6.80
2013,02,15,19,45,6.90
2013,02,15,19,46,6.90
2013,02,15,19,47,6.90
2013,02,15,19,48,6.80
2013,02,15,19,49,6.80
2013,02,15,19,50,6.90
2013,02,15,19,51,6.80
2013,02,15,19,52,6.80
2013,02,15,19,53,6.80
2013,02,15,19,54,6.80
2013,02,15,19,55,6.80
2013,02,15,19,56,6.80
2013,02,15,19,57,6.80
2013,02,15,19,58,6.80
2013,02,15,19,59,6.80
2013,02,15,20,00,6.90
2013,02,15,20,01,6.80
2013,02,15,20,02,6.90
2013,02,15,20,03,6.90
2013,02,15,20,04,6.90
2013,02,15,20,05,6.90
2013,02,15,20,06,6.90
2013,02,15,20,07,6.90
2013,02,15,20,08,6.90
2013,02,15,20,09,6.90
2013,02,15,20,10,6.90
2013,02,15,20,11,6.90
2013,02,15,20,12,6.90
2013,02,15,20,13,6.80
2013,02,15,20,14,6.80
2013,02,15,20,15,6.80
2013,02,15,20,16,6.80
2013,02,15,20,17,6.80
2013,02,15,20,18,6.80
2013,02,15,20,19,6.80
2013,02,15,20,20,6.80
2013,02,15,20,21,6.80
2013,02,15,20,22,6.80
2013,02,15,20,23,6.80
2013,02,15,20,24,6.80
2013,02,15,20,25,6.80
2013,02,15,20,26,6.80
2013,02,15,20,27,6.80
2013,02,15,20,28,6.80
2013,02,15,20,29,6.80
2013,02,15,20,30,6.80
2013,02,15,20,31,6.80
2013,02,15,20,32,6.70
2013,02,15,20,33,6.70
2013,02,15,20,34,6.70
2013,02,15,20,35,6.70
2013,02,15,20,36,6.70
2013,02,15,20,37,6.70
2013,02,15,20,38,6.70
2013,02,15,20,39,6.70
2013,02,15,20,40,6.70
2013,02,15,20,41,6.70
2013,02,15,20,42,6.70
2013,02,15,20,43,6.70
2013,02,15,20,44,6.70
2013,02,15,20,45,6.70
2013,02,15,20,46,6.70
2013,02,15,20,47,6.70
2013,02,15,20,48,6.70
2013,02,15,20,49,6.70
2013,02,15,20,50,6.70
2013,02,15,20,51,6.70
2013,02,15,20,52,6.70
2013,02,15,20,53,6.70
2013,02,15,20,54,6.70
2013,02,15,20,55,6.70
2013,02,15,20,56,6.70
2013,02,15,20,57,6.70
2013,02,15,20,58,6.70
2013,02,15,20,59,6.70
2013,02,15,21,00,6.70
2013,02,15,21,01,6.70
2013,02,15,21,02,6.70
2013,02,15,21,03,6.70
2013,02,15,21,04,6.70
2013,02,15,21,05,6.70
2013,02,15,21,06,6.70
2013,02,15,21,07,6.70
2013,02,15,21,08,6.70
2013,02,15,21,09,6.70
2013,02,15,21,10,6.70
2013,02,15,21,11,6.70
2013,02,15,21,12,6.70
2013,02,15,21,13,6.70
2013,02,15,21,14,6.70
2013,02,15,21,15,6.70
2013,02,15,21,16,6.70
2013,02,15,21,17,6.70
2013,02,15,21,18,6.70
2013,02,15,21,19,6.70
2013,02,15,21,20,6.70
2013,02,15,21,21,6.70
2013,02,15,21,22,6.70
2013,02,15,21,23,6.70
2013,02,15,21,24,6.70
2013,02,15,21,25,6.70
2013,02,15,21,26,6.70
2013,02,15,21,27,6.70
2013,02,15,21,28,6.70
2013,02,15,21,29,6.70
2013,02,15,21,30,6.70
2013,02,15,21,31,6.70
2013,02,15,21,32,6.70
2013,02,15,21,33,6.70
2013,02,15,21,34,6.70
2013,02,15,21,35,6.70
2013,02,15,21,36,6.70
2013,02,15,21,37,6.60
2013,02,15,21,38,6.60
2013,02,15,21,39,6.60
2013,02,15,21,40,6.60
2013,02,15,21,41,6.60
2013,02,15,21,42,6.60
2013,02,15,21,43,6.60
2013,02,15,21,44,6.60
2013,02,15,21,45,6.60
2013,02,15,21,46,6.60
2013,02,15,21,47,6.60
2013,02,15,21,48,6.60
2013,02,15,21,49,6.60
2013,02,15,21,50,6.60
2013,02,15,21,51,6.60
2013,02,15,21,52,6.60
2013,02,15,21,53,6.60
2013,02,15,21,54,6.60
2013,02,15,21,55,6.60
2013,02,15,21,56,6.60
2013,02,15,21,57,6.60
2013,02,15,21,58,6.60
2013,02,15,21,59,6.60
2013,02,15,22,00,6.60
2013,02,15,22,01,6.60
2013,02,15,22,02,6.50
2013,02,15,22,03,6.50
2013,02,15,22,04,6.50
2013,02,15,22,05,6.50
2013,02,15,22,06,6.50
2013,02,15,22,07,6.50
2013,02,15,22,08,6.50
2013,02,15,22,09,6.50
2013,02,15,22,10,6.50
2013,02,15,22,11,6.50
2013,02,15,22,12,6.40
2013,02,15,22,13,6.40
2013,02,15,22,14,6.40
2013,02,15,22,15,6.40
2013,02,15,22,16,6.40
2013,02,15,22,17,6.40
2013,02,15,22,18,6.40
2013,02,15,22,19,6.40
2013,02,15,22,20,6.40
2013,02,15,22,21,6.40
2013,02,15,22,22,6.40
2013,02,15,22,23,6.40
2013,02,15,22,24,6.40
2013,02,15,22,25,6.40
2013,02,15,22,26,6.40
2013,02,15,22,27,6.40
2013,02,15,22,28,6.30
2013,02,15,22,29,6.30
2013,02,15,22,30,6.30
2013,02,15,22,31,6.30
2013,02,15,22,32,6.30
2013,02,15,22,33,6.30
2013,02,15,22,34,6.30
2013,02,15,22,35,6.30
2013,02,15,22,36,6.30
2013,02,15,22,37,6.30
2013,02,15,22,38,6.30
2013,02,15,22,39,6.30
2013,02,15,22,40,6.30
2013,02,15,22,41,6.30
2013,02,15,22,42,6.30
2013,02,15,22,43,6.30
2013,02,15,22,44,6.20
2013,02,15,22,45,6.20
2013,02,15,22,46,6.20
2013,02,15,22,47,6.20
2013,02,15,22,48,6.20
2013,02,15,22,49,6.20
2013,02,15,22,50,6.20
2013,02,15,22,51,6.20
2013,02,15,22,52,6.20
2013,02,15,22,53,6.20
2013,02,15,22,54,6.20
2013,02,15,22,55,6.20
2013,02,15,22,56,6.20
2013,02,15,22,57,6.20
2013,02,15,22,58,6.20
2013,02,15,22,59,6.20
2013,02,15,23,00,6.20
2013,02,15,23,01,6.20
2013,02,15,23,02,6.20
2013,02,15,23,03,6.20
2013,02,15,23,04,6.20
2013,02,15,23,05,6.20
2013,02,15,23,06,6.20
2013,02,15,23,07,6.20
2013,02,15,23,08,6.20
2013,02,15,23,09,6.30
2013,02,15,23,10,6.30
2013,02,15,23,11,6.20
2013,02,15,23,12,6.30
2013,02,15,23,13,6.30
2013,02,15,23,14,6.20
2013,02,15,23,15,6.20
2013,02,15,23,16,6.30
2013,02,15,23,17,6.30
2013,02,15,23,18,6.20
2013,02,15,23,19,6.20
2013,02,15,23,20,6.30
2013,02,15,23,21,6.30
2013,02,15,23,22,6.30
2013,02,15,23,23,6.30
2013,02,15,23,24,6.30
2013,02,15,23,25,6.30
2013,02,15,23,26,6.30
2013,02,15,23,27,6.30
2013,02,15,23,28,6.30
2013,02,15,23,29,6.30
2013,02,15,23,30,6.30
2013,02,15,23,31,6.30
2013,02,15,23,32,6.30
2013,02,15,23,33,6.30
2013,02,15,23,34,6.30
2013,02,15,23,35,6.30
2013,02,15,23,36,6.30
2013,02,15,23,37,6.30
2013,02,15,23,38,6.30
2013,02,15,23,39,6.30
2013,02,15,23,40,6.30
2013,02,15,23,41,6.30
2013,02,15,23,42,6.30
2013,02,15,23,43,6.30
2013,02,15,23,44,6.30
2013,02,15,23,45,6.30
2013,02,15,23,46,6.30
2013,02,15,23,47,6.30
2013,02,15,23,48,6.30
2013,02,15,23,49,6.30
2013,02,15,23,50,6.30
2013,02,15,23,51,6.30
2013,02,15,23,52,6.30
2013,02,15,23,53,6.30
2013,02,15,23,54,6.30
2013,02,15,23,55,6.30
2013,02,15,23,56,6.30
2013,02,15,23,57,6.30
2013,02,15,23,58,6.30
2013,02,15,23,59,6.30
